Time,TemperatureF,DewpointF,PressureIn,WindDirection,WindDirectionDegrees,WindSpeedMPH,WindSpeedGustMPH,Humidity,HourlyPrecipIn,Conditions,Clouds,dailyrainin,SoftwareType,DateUTC
2013-01-19 00:00:00,42.1,30.0,30.01,SSW,199,3.0,12.0,62,0.00,,---,0.00,VWS V14.01,2013-01-19 06:00:00,
2013-01-19 00:03:00,41.9,29.9,30.02,SSW,209,3.0,9.0,62,0.00,,---,0.00,VWS V14.01,2013-01-19 06:03:00,
2013-01-19 00:08:00,41.9,29.9,30.01,South,190,3.0,9.0,62,0.00,,---,0.00,VWS V14.01,2013-01-19 06:08:00,
2013-01-19 00:14:00,42.0,29.9,30.01,SSW,199,2.0,9.0,62,0.00,,---,0.00,VWS V14.01,2013-01-19 06:14:00,
2013-01-19 00:19:00,42.3,29.8,30.01,SSW,192,8.0,11.0,61,0.00,,---,0.00,VWS V14.01,2013-01-19 06:19:00,
2013-01-19 00:24:00,42.4,29.9,30.01,SSW,194,6.0,11.0,61,0.00,,---,0.00,VWS V14.01,2013-01-19 06:24:00,
2013-01-19 00:29:00,42.2,30.1,30.01,SSW,205,2.0,8.0,62,0.00,,---,0.00,VWS V14.01,2013-01-19 06:29:00,
2013-01-19 00:30:00,41.6,30.0,30.01,SW,225,5.0,11.0,63,0.00,,---,0.00,VWS V14.01,2013-01-19 06:30:00,
2013-01-19 00:34:00,42.2,29.7,30.01,SSW,200,4.0,12.0,61,0.00,,---,0.00,VWS V14.01,2013-01-19 06:34:00,
2013-01-19 00:39:00,42.1,30.0,30.01,SSW,194,5.0,12.0,62,0.00,,---,0.00,VWS V14.01,2013-01-19 06:39:00,
2013-01-19 00:44:00,42.0,29.9,30.01,SSW,212,4.0,12.0,62,0.00,,---,0.00,VWS V14.01,2013-01-19 06:44:00,
2013-01-19 00:49:00,41.9,29.9,30.01,WSW,238,3.0,12.0,62,0.00,,---,0.00,VWS V14.01,2013-01-19 06:49:00,
2013-01-19 00:54:00,42.0,29.9,30.01,NNE,12,7.0,12.0,62,0.00,,---,0.00,VWS V14.01,2013-01-19 06:54:00,
2013-01-19 00:59:00,42.1,30.0,30.01,South,188,6.0,7.0,62,0.00,,---,0.00,VWS V14.01,2013-01-19 06:59:00,
2013-01-19 01:00:00,41.3,29.7,30.01,SSW,194,2.0,11.0,63,0.00,,---,0.00,VWS V14.01,2013-01-19 07:00:00,
2013-01-19 01:04:00,41.9,29.9,30.01,SSW,206,5.0,11.0,62,0.00,,---,0.00,VWS V14.01,2013-01-19 07:04:00,
2013-01-19 01:09:00,41.8,29.8,30.01,SSW,202,4.0,11.0,62,0.00,,---,0.00,VWS V14.01,2013-01-19 07:09:00,
2013-01-19 01:15:00,41.7,30.0,30.01,SSW,196,4.0,11.0,63,0.00,,---,0.00,VWS V14.01,2013-01-19 07:15:00,
2013-01-19 01:20:00,41.7,29.7,30.01,SW,215,3.0,11.0,62,0.00,,---,0.00,VWS V14.01,2013-01-19 07:20:00,
2013-01-19 01:25:00,41.6,30.0,30.01,South,186,4.0,11.0,63,0.00,,---,0.00,VWS V14.01,2013-01-19 07:25:00,
2013-01-19 01:30:00,41.6,30.0,30.01,SSW,209,4.0,8.0,63,0.00,,---,0.00,VWS V14.01,2013-01-19 07:30:00,
2013-01-19 01:35:00,41.6,30.0,30.01,South,180,8.0,10.0,63,0.00,,---,0.00,VWS V14.01,2013-01-19 07:35:00,
2013-01-19 01:40:00,41.5,29.9,30.01,South,188,4.0,10.0,63,0.00,,---,0.00,VWS V14.01,2013-01-19 07:40:00,
2013-01-19 01:45:00,41.5,29.9,30.01,NW,317,5.0,10.0,63,0.00,,---,0.00,VWS V14.01,2013-01-19 07:45:00,
2013-01-19 01:50:00,41.4,29.8,30.01,SSW,209,6.0,11.0,63,0.00,,---,0.00,VWS V14.01,2013-01-19 07:50:00,
2013-01-19 01:55:00,41.3,29.7,30.01,SSW,207,2.0,11.0,63,0.00,,---,0.00,VWS V14.01,2013-01-19 07:55:00,
2013-01-19 02:00:00,41.3,29.7,30.01,South,191,3.0,10.0,63,0.00,,---,0.00,VWS V14.01,2013-01-19 08:00:00,
2013-01-19 02:05:00,41.1,29.9,30.01,South,188,5.0,10.0,64,0.00,,---,0.00,VWS V14.01,2013-01-19 08:05:00,
2013-01-19 02:10:00,41.0,29.8,30.01,SSW,194,4.0,10.0,64,0.00,,---,0.00,VWS V14.01,2013-01-19 08:10:00,
2013-01-19 02:15:00,40.8,29.6,30.01,South,189,8.0,10.0,64,0.00,,---,0.00,VWS V14.01,2013-01-19 08:15:00,
2013-01-19 02:20:00,40.7,29.9,30.01,SSW,198,7.0,10.0,65,0.00,,---,0.00,VWS V14.01,2013-01-19 08:20:00,
2013-01-19 02:25:00,40.6,29.8,30.01,South,186,4.0,10.0,65,0.00,,---,0.00,VWS V14.01,2013-01-19 08:25:00,
2013-01-19 02:30:00,40.4,29.6,30.01,South,187,6.0,7.0,65,0.00,,---,0.00,VWS V14.01,2013-01-19 08:30:00,
2013-01-19 02:35:00,40.3,29.9,30.01,SSW,198,3.0,10.0,66,0.00,,---,0.00,VWS V14.01,2013-01-19 08:35:00,
2013-01-19 02:41:00,40.2,29.8,30.01,SSW,192,6.0,11.0,66,0.00,,---,0.00,VWS V14.01,2013-01-19 08:41:00,
2013-01-19 02:46:00,40.3,29.9,30.01,SSW,196,5.0,11.0,66,0.00,,---,0.00,VWS V14.01,2013-01-19 08:46:00,
2013-01-19 02:51:00,40.2,29.8,30.01,South,188,2.0,11.0,66,0.00,,---,0.00,VWS V14.01,2013-01-19 08:51:00,
2013-01-19 02:56:00,40.3,29.9,30.01,South,182,5.0,11.0,66,0.00,,---,0.00,VWS V14.01,2013-01-19 08:56:00,
2013-01-19 03:00:00,39.7,29.7,29.99,South,180,3.0,13.0,67,0.00,,---,0.00,VWS V14.01,2013-01-19 09:00:00,
2013-01-19 03:01:00,40.2,29.8,30.01,SSW,195,6.0,8.0,66,0.00,,---,0.00,VWS V14.01,2013-01-19 09:01:00,
2013-01-19 03:06:00,40.2,29.8,30.00,SSW,194,2.0,8.0,66,0.00,,---,0.00,VWS V14.01,2013-01-19 09:06:00,
2013-01-19 03:11:00,40.2,29.8,30.00,SSW,192,4.0,8.0,66,0.00,,---,0.00,VWS V14.01,2013-01-19 09:11:00,
2013-01-19 03:16:00,40.2,29.8,30.00,South,190,9.0,9.0,66,0.00,,---,0.00,VWS V14.01,2013-01-19 09:16:00,
2013-01-19 03:21:00,40.2,29.8,30.00,SSW,195,4.0,9.0,66,0.00,,---,0.00,VWS V14.01,2013-01-19 09:21:00,
2013-01-19 03:26:00,39.9,29.9,30.00,South,190,7.0,10.0,67,0.00,,---,0.00,VWS V14.01,2013-01-19 09:26:00,
2013-01-19 03:30:00,39.6,29.9,29.98,SSW,196,7.0,10.0,68,0.00,,---,0.00,VWS V14.01,2013-01-19 09:30:00,
2013-01-19 03:31:00,39.8,29.8,30.00,South,186,9.0,9.0,67,0.00,,---,0.00,VWS V14.01,2013-01-19 09:31:00,
2013-01-19 03:37:00,39.8,29.8,30.00,South,190,5.0,10.0,67,0.00,,---,0.00,VWS V14.01,2013-01-19 09:37:00,
2013-01-19 03:42:00,39.8,29.8,29.99,SSW,196,4.0,10.0,67,0.00,,---,0.00,VWS V14.01,2013-01-19 09:42:00,
2013-01-19 03:47:00,39.8,29.8,29.99,SSW,195,3.0,10.0,67,0.00,,---,0.00,VWS V14.01,2013-01-19 09:47:00,
2013-01-19 03:52:00,39.8,29.8,29.99,SSW,196,7.0,13.0,67,0.00,,---,0.00,VWS V14.01,2013-01-19 09:52:00,
2013-01-19 03:57:00,39.8,29.8,29.99,South,188,5.0,13.0,67,0.00,,---,0.00,VWS V14.01,2013-01-19 09:57:00,
2013-01-19 04:00:00,38.7,29.4,29.97,South,185,5.0,10.0,69,0.00,,---,0.00,VWS V14.01,2013-01-19 10:00:00,
2013-01-19 04:02:00,39.7,29.7,29.98,SSW,199,5.0,9.0,67,0.00,,---,0.00,VWS V14.01,2013-01-19 10:02:00,
2013-01-19 04:07:00,39.6,29.9,29.98,SSW,194,4.0,9.0,68,0.00,,---,0.00,VWS V14.01,2013-01-19 10:07:00,
2013-01-19 04:12:00,39.5,29.8,29.98,SSW,200,7.0,10.0,68,0.00,,---,0.00,VWS V14.01,2013-01-19 10:12:00,
2013-01-19 04:17:00,39.5,29.8,29.98,South,189,6.0,10.0,68,0.00,,---,0.00,VWS V14.01,2013-01-19 10:17:00,
2013-01-19 04:22:00,39.5,29.8,29.98,South,187,10.0,10.0,68,0.00,,---,0.00,VWS V14.01,2013-01-19 10:22:00,
2013-01-19 04:27:00,39.6,29.9,29.98,SSW,194,3.0,10.0,68,0.00,,---,0.00,VWS V14.01,2013-01-19 10:27:00,
2013-01-19 04:30:00,38.7,29.8,29.97,South,188,6.0,9.0,70,0.00,,---,0.00,VWS V14.01,2013-01-19 10:30:00,
2013-01-19 04:33:00,39.5,29.8,29.98,SSW,194,3.0,8.0,68,0.00,,---,0.00,VWS V14.01,2013-01-19 10:33:00,
2013-01-19 04:38:00,39.3,29.6,29.98,South,190,4.0,10.0,68,0.00,,---,0.00,VWS V14.01,2013-01-19 10:38:00,
2013-01-19 04:43:00,39.1,29.5,29.98,South,171,5.0,10.0,68,0.00,,---,0.00,VWS V14.01,2013-01-19 10:43:00,
2013-01-19 04:48:00,39.0,29.7,29.98,South,188,6.0,10.0,69,0.00,,---,0.00,VWS V14.01,2013-01-19 10:48:00,
2013-01-19 04:53:00,38.9,29.6,29.98,South,177,4.0,10.0,69,0.00,,---,0.00,VWS V14.01,2013-01-19 10:53:00,
2013-01-19 04:58:00,38.7,29.4,29.97,South,179,4.0,10.0,69,0.00,,---,0.00,VWS V14.01,2013-01-19 10:58:00,
2013-01-19 05:00:00,38.7,29.8,29.96,South,180,4.0,10.0,70,0.00,,---,0.00,VWS V14.01,2013-01-19 11:00:00,
2013-01-19 05:03:00,38.7,29.4,29.97,South,184,5.0,7.0,69,0.00,,---,0.00,VWS V14.01,2013-01-19 11:03:00,
2013-01-19 05:08:00,38.6,29.3,29.97,South,188,7.0,8.0,69,0.00,,---,0.00,VWS V14.01,2013-01-19 11:08:00,
2013-01-19 05:13:00,38.6,29.7,29.97,South,190,3.0,8.0,70,0.00,,---,0.00,VWS V14.01,2013-01-19 11:13:00,
2013-01-19 05:30:00,37.5,29.6,29.95,South,175,7.0,10.0,73,0.00,,---,0.00,VWS V14.01,2013-01-19 11:30:00,
2013-01-19 06:00:00,36.8,29.3,29.95,South,182,4.0,11.0,74,0.00,,---,0.00,VWS V14.01,2013-01-19 12:00:00,
2013-01-19 06:30:00,36.8,29.6,29.94,South,189,7.0,7.0,75,0.00,,---,0.00,VWS V14.01,2013-01-19 12:30:00,
2013-01-19 06:48:00,37.2,29.4,29.95,South,182,3.0,11.0,73,0.00,,---,0.00,VWS V14.01,2013-01-19 12:48:00,
2013-01-19 06:53:00,37.0,29.5,29.95,South,173,2.0,11.0,74,0.00,,---,0.00,VWS V14.01,2013-01-19 12:53:00,
2013-01-19 06:59:00,36.8,29.3,29.95,South,184,5.0,5.0,74,0.00,,---,0.00,VWS V14.01,2013-01-19 12:59:00,
2013-01-19 07:00:00,37.8,30.6,29.94,SSW,192,3.0,8.0,75,0.00,,---,0.00,VWS V14.01,2013-01-19 13:00:00,
2013-01-19 07:04:00,36.8,29.6,29.95,South,178,3.0,6.0,75,0.00,,---,0.00,VWS V14.01,2013-01-19 13:04:00,
2013-01-19 07:09:00,36.8,29.6,29.95,South,187,4.0,6.0,75,0.00,,---,0.00,VWS V14.01,2013-01-19 13:09:00,
2013-01-19 07:14:00,36.8,29.6,29.95,South,185,4.0,7.0,75,0.00,,---,0.00,VWS V14.01,2013-01-19 13:14:00,
2013-01-19 07:19:00,36.8,29.6,29.95,South,188,6.0,7.0,75,0.00,,---,0.00,VWS V14.01,2013-01-19 13:19:00,
2013-01-19 07:24:00,36.8,29.6,29.94,South,182,3.0,7.0,75,0.00,,---,0.00,VWS V14.01,2013-01-19 13:24:00,
2013-01-19 07:29:00,36.8,29.6,29.94,South,177,4.0,7.0,75,0.00,,---,0.00,VWS V14.01,2013-01-19 13:29:00,
2013-01-19 07:30:00,39.8,31.5,29.94,SSW,193,5.0,11.0,72,0.00,,---,0.00,VWS V14.01,2013-01-19 13:30:00,
2013-01-19 07:34:00,36.9,29.7,29.94,South,173,3.0,7.0,75,0.00,,---,0.00,VWS V14.01,2013-01-19 13:34:00,
2013-01-19 07:39:00,37.0,29.8,29.94,South,173,4.0,7.0,75,0.00,,---,0.00,VWS V14.01,2013-01-19 13:39:00,
2013-01-19 07:44:00,37.1,29.9,29.94,South,169,4.0,7.0,75,0.00,,---,0.00,VWS V14.01,2013-01-19 13:44:00,
2013-01-19 07:49:00,37.3,30.1,29.94,South,178,4.0,8.0,75,0.00,,---,0.00,VWS V14.01,2013-01-19 13:49:00,
2013-01-19 07:54:00,37.5,30.3,29.94,South,190,6.0,8.0,75,0.00,,---,0.00,VWS V14.01,2013-01-19 13:54:00,
2013-01-19 07:59:00,37.9,30.4,29.94,South,178,3.0,4.0,74,0.00,,---,0.00,VWS V14.01,2013-01-19 13:59:00,
2013-01-19 08:00:00,41.2,32.2,29.93,SSW,197,3.0,12.0,70,0.00,,---,0.00,VWS V14.01,2013-01-19 14:00:00,
2013-01-19 08:04:00,38.2,30.7,29.94,South,190,3.0,11.0,74,0.00,,---,0.00,VWS V14.01,2013-01-19 14:04:00,
2013-01-19 08:09:00,38.6,31.0,29.94,South,173,5.0,11.0,74,0.00,,---,0.00,VWS V14.01,2013-01-19 14:09:00,
2013-01-19 08:14:00,38.9,31.0,29.94,SSW,192,4.0,11.0,73,0.00,,---,0.00,VWS V14.01,2013-01-19 14:14:00,
2013-01-19 08:20:00,39.2,31.3,29.94,SSW,199,4.0,11.0,73,0.00,,---,0.00,VWS V14.01,2013-01-19 14:20:00,
2013-01-19 08:25:00,39.5,31.6,29.94,SSW,194,3.0,11.0,73,0.00,,---,0.00,VWS V14.01,2013-01-19 14:25:00,
2013-01-19 08:30:00,40.0,31.7,29.94,SSW,195,4.0,8.0,72,0.00,,---,0.00,VWS V14.01,2013-01-19 14:30:00,
2013-01-19 08:35:00,40.3,31.7,29.94,SSW,196,4.0,9.0,71,0.00,,---,0.00,VWS V14.01,2013-01-19 14:35:00,
2013-01-19 08:40:00,40.7,32.0,29.94,South,190,6.0,11.0,71,0.00,,---,0.00,VWS V14.01,2013-01-19 14:40:00,
2013-01-19 08:45:00,41.1,32.1,29.94,SSW,196,7.0,11.0,70,0.00,,---,0.00,VWS V14.01,2013-01-19 14:45:00,
2013-01-19 08:50:00,41.2,32.2,29.94,SSW,194,4.0,11.0,70,0.00,,---,0.00,VWS V14.01,2013-01-19 14:50:00,
2013-01-19 08:55:00,41.2,32.2,29.93,SSW,194,6.0,11.0,70,0.00,,---,0.00,VWS V14.01,2013-01-19 14:55:00,
2013-01-19 09:00:00,41.2,32.2,29.93,South,173,4.0,12.0,70,0.00,,---,0.00,VWS V14.01,2013-01-19 15:00:00,
2013-01-19 09:05:00,41.2,32.5,29.94,SSW,192,4.0,12.0,71,0.00,,---,0.00,VWS V14.01,2013-01-19 15:05:00,
2013-01-19 09:10:00,41.3,32.6,29.94,SSW,192,6.0,12.0,71,0.00,,---,0.00,VWS V14.01,2013-01-19 15:10:00,
2013-01-19 09:15:00,41.7,32.7,29.94,SSW,198,2.0,12.0,70,0.00,,---,0.00,VWS V14.01,2013-01-19 15:15:00,
2013-01-19 09:21:00,42.2,33.1,29.94,SSW,203,2.0,12.0,70,0.00,,---,0.00,VWS V14.01,2013-01-19 15:21:00,
2013-01-19 09:26:00,42.5,33.1,29.94,South,188,5.0,12.0,69,0.00,,---,0.00,VWS V14.01,2013-01-19 15:26:00,
2013-01-19 09:30:00,47.3,35.8,29.92,WSW,237,8.0,21.0,64,0.00,,---,0.00,VWS V14.01,2013-01-19 15:30:00,
2013-01-19 09:31:00,42.4,33.0,29.94,SSW,205,3.0,7.0,69,0.00,,---,0.00,VWS V14.01,2013-01-19 15:31:00,
2013-01-19 09:36:00,42.4,33.3,29.94,South,191,5.0,7.0,70,0.00,,---,0.00,VWS V14.01,2013-01-19 15:36:00,
2013-01-19 09:41:00,42.4,33.3,29.95,SSW,194,4.0,8.0,70,0.00,,---,0.00,VWS V14.01,2013-01-19 15:41:00,
2013-01-19 09:46:00,42.4,33.3,29.94,SSW,192,2.0,8.0,70,0.00,,---,0.00,VWS V14.01,2013-01-19 15:46:00,
2013-01-19 09:52:00,42.5,33.4,29.94,South,190,7.0,9.0,70,0.00,,---,0.00,VWS V14.01,2013-01-19 15:52:00,
2013-01-19 09:57:00,42.9,33.8,29.94,SSW,193,5.0,9.0,70,0.00,,---,0.00,VWS V14.01,2013-01-19 15:57:00,
2013-01-19 10:00:00,48.8,36.4,29.90,SW,234,14.0,26.0,62,0.00,,---,0.00,VWS V14.01,2013-01-19 16:00:00,
2013-01-19 10:02:00,43.6,34.5,29.93,WSW,238,7.0,7.0,70,0.00,,---,0.00,VWS V14.01,2013-01-19 16:02:00,
2013-01-19 10:07:00,44.9,35.0,29.93,SSW,195,10.0,14.0,68,0.00,,---,0.00,VWS V14.01,2013-01-19 16:07:00,
2013-01-19 10:12:00,45.9,35.2,29.92,North,5,11.0,15.0,66,0.00,,---,0.00,VWS V14.01,2013-01-19 16:12:00,
2013-01-19 10:17:00,46.6,35.9,29.92,SW,230,17.0,17.0,66,0.00,,---,0.00,VWS V14.01,2013-01-19 16:17:00,
2013-01-19 10:22:00,47.0,35.9,29.92,SW,227,11.0,17.0,65,0.00,,---,0.00,VWS V14.01,2013-01-19 16:22:00,
2013-01-19 10:27:00,47.2,35.7,29.92,SW,228,11.0,19.0,64,0.00,,---,0.00,VWS V14.01,2013-01-19 16:27:00,
2013-01-19 10:30:00,48.8,37.2,29.89,WSW,241,16.0,25.0,64,0.00,,---,0.00,VWS V14.01,2013-01-19 16:30:00,
2013-01-19 10:32:00,47.5,35.9,29.91,North,5,9.0,15.0,64,0.00,,---,0.00,VWS V14.01,2013-01-19 16:32:00,
2013-01-19 10:37:00,47.9,35.9,29.91,WSW,254,10.0,25.0,63,0.00,,---,0.00,VWS V14.01,2013-01-19 16:37:00,
2013-01-19 10:42:00,48.1,36.1,29.91,SW,236,4.0,26.0,63,0.00,,---,0.00,VWS V14.01,2013-01-19 16:42:00,
2013-01-19 10:47:00,48.5,36.5,29.91,NNE,25,7.0,26.0,63,0.00,,---,0.00,VWS V14.01,2013-01-19 16:47:00,
2013-01-19 10:52:00,48.8,36.8,29.91,WSW,246,11.0,26.0,63,0.00,,---,0.00,VWS V14.01,2013-01-19 16:52:00,
2013-01-19 10:57:00,48.8,36.4,29.90,SW,231,18.0,26.0,62,0.00,,---,0.00,VWS V14.01,2013-01-19 16:57:00,
2013-01-19 11:00:00,49.9,37.8,29.86,SW,236,11.0,27.0,63,0.00,,---,0.00,VWS V14.01,2013-01-19 17:00:00,
2013-01-19 11:02:00,48.9,36.9,29.90,SSW,194,6.0,19.0,63,0.00,,---,0.00,VWS V14.01,2013-01-19 17:02:00,
2013-01-19 11:07:00,49.0,37.0,29.89,SW,223,9.0,19.0,63,0.00,,---,0.00,VWS V14.01,2013-01-19 17:07:00,
2013-01-19 11:13:00,48.7,36.7,29.89,SW,219,16.0,21.0,63,0.00,,---,0.00,VWS V14.01,2013-01-19 17:13:00,
2013-01-19 11:18:00,48.6,36.6,29.89,SW,232,17.0,25.0,63,0.00,,---,0.00,VWS V14.01,2013-01-19 17:18:00,
2013-01-19 11:25:00,48.7,37.1,29.89,WSW,245,9.0,25.0,64,0.00,,---,0.00,VWS V14.01,2013-01-19 17:25:00,
2013-01-19 11:30:00,48.7,37.1,29.89,WSW,240,16.0,16.0,64,0.00,,---,0.00,VWS V14.01,2013-01-19 17:30:00,
2013-01-19 11:35:00,48.7,37.1,29.88,WSW,248,18.0,27.0,64,0.00,,---,0.00,VWS V14.01,2013-01-19 17:35:00,
2013-01-19 11:40:00,48.8,37.2,29.88,WSW,250,17.0,27.0,64,0.00,,---,0.00,VWS V14.01,2013-01-19 17:40:00,
2013-01-19 11:45:00,48.9,37.3,29.87,SW,226,8.0,27.0,64,0.00,,---,0.00,VWS V14.01,2013-01-19 17:45:00,
2013-01-19 11:50:00,49.2,37.2,29.87,WSW,238,12.0,27.0,63,0.00,,---,0.00,VWS V14.01,2013-01-19 17:50:00,
2013-01-19 11:55:00,49.6,38.3,29.86,SW,232,15.0,27.0,65,0.00,,---,0.00,VWS V14.01,2013-01-19 17:55:00,
2013-01-19 12:00:00,50.1,38.4,29.86,WSW,249,6.0,19.0,64,0.00,,---,0.00,VWS V14.01,2013-01-19 18:00:00,
2013-01-19 12:06:00,50.6,38.5,29.87,South,169,6.0,21.0,63,0.00,,---,0.00,VWS V14.01,2013-01-19 18:06:00,
2013-01-19 12:11:00,50.3,37.8,29.86,SW,236,15.0,22.0,62,0.00,,---,0.00,VWS V14.01,2013-01-19 18:11:00,
2013-01-19 12:17:00,49.8,37.7,29.86,SW,234,8.0,25.0,63,0.00,,---,0.00,VWS V14.01,2013-01-19 18:17:00,
2013-01-19 12:22:00,49.7,38.0,29.85,SW,236,20.0,25.0,64,0.00,,---,0.00,VWS V14.01,2013-01-19 18:22:00,
2013-01-19 12:28:00,49.7,38.0,29.85,WSW,247,10.0,25.0,64,0.00,,---,0.00,VWS V14.01,2013-01-19 18:28:00,
2013-01-19 12:30:00,49.6,39.1,29.85,WSW,245,19.0,24.0,67,0.00,,---,0.00,VWS V14.01,2013-01-19 18:30:00,
2013-01-19 12:33:00,49.7,38.0,29.85,SW,234,13.0,17.0,64,0.00,,---,0.00,VWS V14.01,2013-01-19 18:33:00,
2013-01-19 12:38:00,49.5,38.2,29.85,WSW,248,15.0,21.0,65,0.00,,---,0.00,VWS V14.01,2013-01-19 18:38:00,
2013-01-19 12:44:00,49.3,38.0,29.85,WSW,238,19.0,22.0,65,0.00,,---,0.00,VWS V14.01,2013-01-19 18:44:00,
2013-01-19 12:49:00,49.4,38.5,29.85,SW,236,8.0,22.0,66,0.00,,---,0.00,VWS V14.01,2013-01-19 18:49:00,
2013-01-19 12:54:00,49.5,38.6,29.84,WSW,238,17.0,22.0,66,0.00,,---,0.00,VWS V14.01,2013-01-19 18:54:00,
2013-01-19 12:59:00,49.5,38.6,29.84,WSW,243,3.0,15.0,66,0.00,,---,0.00,VWS V14.01,2013-01-19 18:59:00,
2013-01-19 13:00:00,51.1,39.4,29.83,WSW,241,13.0,23.0,64,0.00,,---,0.00,VWS V14.01,2013-01-19 19:00:00,
2013-01-19 13:04:00,49.3,38.4,29.84,WSW,237,4.0,19.0,66,0.00,,---,0.00,VWS V14.01,2013-01-19 19:04:00,
2013-01-19 13:10:00,49.2,38.7,29.84,WSW,246,9.0,19.0,67,0.00,,---,0.00,VWS V14.01,2013-01-19 19:10:00,
2013-01-19 13:16:00,49.3,38.4,29.85,WSW,242,19.0,24.0,66,0.00,,---,0.00,VWS V14.01,2013-01-19 19:16:00,
2013-01-19 13:21:00,49.6,39.1,29.85,WSW,246,13.0,24.0,67,0.00,,---,0.00,VWS V14.01,2013-01-19 19:21:00,
2013-01-19 13:26:00,49.6,38.7,29.85,WSW,254,13.0,24.0,66,0.00,,---,0.00,VWS V14.01,2013-01-19 19:26:00,
2013-01-19 13:30:00,51.9,39.3,29.83,SW,226,10.0,24.0,62,0.00,,---,0.00,VWS V14.01,2013-01-19 19:30:00,
2013-01-19 13:31:00,49.6,38.7,29.84,SW,234,11.0,19.0,66,0.00,,---,0.00,VWS V14.01,2013-01-19 19:31:00,
2013-01-19 13:37:00,49.7,38.8,29.84,SW,225,5.0,19.0,66,0.00,,---,0.00,VWS V14.01,2013-01-19 19:37:00,
2013-01-19 13:42:00,50.2,39.3,29.84,SW,223,10.0,19.0,66,0.00,,---,0.00,VWS V14.01,2013-01-19 19:42:00,
2013-01-19 13:47:00,50.8,39.5,29.83,WSW,240,12.0,19.0,65,0.00,,---,0.00,VWS V14.01,2013-01-19 19:47:00,
2013-01-19 13:52:00,51.0,39.7,29.83,WSW,245,8.0,23.0,65,0.00,,---,0.00,VWS V14.01,2013-01-19 19:52:00,
2013-01-19 13:58:00,51.1,39.4,29.83,SW,234,8.0,23.0,64,0.00,,---,0.00,VWS V14.01,2013-01-19 19:58:00,
2013-01-19 14:00:00,52.2,39.2,29.83,WSW,238,13.0,26.0,61,0.00,,---,0.00,VWS V14.01,2013-01-19 20:00:00,
2013-01-19 14:03:00,51.3,39.5,29.83,SW,223,4.0,19.0,64,0.00,,---,0.00,VWS V14.01,2013-01-19 20:03:00,
2013-01-19 14:08:00,51.4,39.7,29.83,SW,222,8.0,24.0,64,0.00,,---,0.00,VWS V14.01,2013-01-19 20:08:00,
2013-01-19 14:13:00,51.5,39.3,29.83,WSW,238,20.0,24.0,63,0.00,,---,0.00,VWS V14.01,2013-01-19 20:13:00,
2013-01-19 14:19:00,51.8,39.6,29.83,WSW,244,9.0,24.0,63,0.00,,---,0.00,VWS V14.01,2013-01-19 20:19:00,
2013-01-19 14:24:00,51.9,39.7,29.83,SSW,207,9.0,24.0,63,0.00,,---,0.00,VWS V14.01,2013-01-19 20:24:00,
2013-01-19 14:29:00,51.9,39.3,29.84,SW,236,18.0,26.0,62,0.00,,---,0.00,VWS V14.01,2013-01-19 20:29:00,
2013-01-19 14:30:00,52.3,38.8,29.84,WSW,240,15.0,20.0,60,0.00,,---,0.00,VWS V14.01,2013-01-19 20:30:00,
2013-01-19 14:35:00,51.9,39.3,29.83,WSW,239,7.0,26.0,62,0.00,,---,0.00,VWS V14.01,2013-01-19 20:35:00,
2013-01-19 14:40:00,52.0,38.6,29.83,WSW,238,11.0,26.0,60,0.00,,---,0.00,VWS V14.01,2013-01-19 20:40:00,
2013-01-19 14:45:00,52.1,39.5,29.83,WSW,239,11.0,26.0,62,0.00,,---,0.00,VWS V14.01,2013-01-19 20:45:00,
2013-01-19 14:50:00,52.2,39.2,29.83,WSW,248,22.0,26.0,61,0.00,,---,0.00,VWS V14.01,2013-01-19 20:50:00,
2013-01-19 14:55:00,52.2,39.2,29.83,WSW,246,14.0,26.0,61,0.00,,---,0.00,VWS V14.01,2013-01-19 20:55:00,
2013-01-19 15:00:00,52.2,39.2,29.83,SW,228,16.0,16.0,61,0.00,,---,0.00,VWS V14.01,2013-01-19 21:00:00,
2013-01-19 15:05:00,52.3,39.3,29.83,WSW,239,7.0,20.0,61,0.00,,---,0.00,VWS V14.01,2013-01-19 21:05:00,
2013-01-19 15:10:00,52.2,39.6,29.83,WSW,241,6.0,20.0,62,0.00,,---,0.00,VWS V14.01,2013-01-19 21:10:00,
2013-01-19 15:16:00,52.4,39.4,29.83,SW,229,19.0,20.0,61,0.00,,---,0.00,VWS V14.01,2013-01-19 21:16:00,
2013-01-19 15:22:00,52.4,39.4,29.84,WSW,237,10.0,20.0,61,0.00,,---,0.00,VWS V14.01,2013-01-19 21:22:00,
2013-01-19 15:28:00,52.3,38.8,29.84,SW,223,14.0,20.0,60,0.00,,---,0.00,VWS V14.01,2013-01-19 21:28:00,
2013-01-19 15:30:00,50.3,38.6,29.86,WSW,241,9.0,20.0,64,0.00,,---,0.00,VWS V14.01,2013-01-19 21:30:00,
2013-01-19 15:33:00,52.2,38.8,29.84,WSW,251,11.0,20.0,60,0.00,,---,0.00,VWS V14.01,2013-01-19 21:33:00,
2013-01-19 15:39:00,52.0,39.0,29.84,WSW,241,18.0,22.0,61,0.00,,---,0.00,VWS V14.01,2013-01-19 21:39:00,
2013-01-19 15:44:00,51.9,38.9,29.84,SW,223,8.0,22.0,61,0.00,,---,0.00,VWS V14.01,2013-01-19 21:44:00,
2013-01-19 15:49:00,51.9,38.9,29.84,SW,236,16.0,22.0,61,0.00,,---,0.00,VWS V14.01,2013-01-19 21:49:00,
2013-01-19 15:54:00,51.8,39.2,29.84,SW,230,12.0,22.0,62,0.00,,---,0.00,VWS V14.01,2013-01-19 21:54:00,
2013-01-19 15:59:00,51.6,39.4,29.85,SW,234,6.0,9.0,63,0.00,,---,0.00,VWS V14.01,2013-01-19 21:59:00,
2013-01-19 16:00:00,48.7,38.2,29.87,SW,229,7.0,16.0,67,0.00,,---,0.00,VWS V14.01,2013-01-19 22:00:00,
2013-01-19 16:04:00,51.4,39.2,29.85,WSW,242,17.0,18.0,63,0.00,,---,0.00,VWS V14.01,2013-01-19 22:04:00,
2013-01-19 16:09:00,51.2,39.0,29.85,West,259,14.0,20.0,63,0.00,,---,0.00,VWS V14.01,2013-01-19 22:09:00,
2013-01-19 16:14:00,51.0,38.9,29.85,WSW,250,8.0,20.0,63,0.00,,---,0.00,VWS V14.01,2013-01-19 22:14:00,
2013-01-19 16:19:00,50.7,39.0,29.86,WSW,240,12.0,20.0,64,0.00,,---,0.00,VWS V14.01,2013-01-19 22:19:00,
2013-01-19 16:25:00,50.5,38.8,29.86,WSW,240,8.0,20.0,64,0.00,,---,0.00,VWS V14.01,2013-01-19 22:25:00,
2013-01-19 16:30:00,50.3,39.0,29.86,WSW,243,9.0,13.0,65,0.00,,---,0.00,VWS V14.01,2013-01-19 22:30:00,
2013-01-19 16:35:00,50.0,38.7,29.87,WSW,250,11.0,14.0,65,0.00,,---,0.00,VWS V14.01,2013-01-19 22:35:00,
2013-01-19 16:40:00,49.6,38.7,29.87,WSW,251,11.0,15.0,66,0.00,,---,0.00,VWS V14.01,2013-01-19 22:40:00,
2013-01-19 16:45:00,49.5,38.6,29.87,WSW,246,10.0,15.0,66,0.00,,---,0.00,VWS V14.01,2013-01-19 22:45:00,
2013-01-19 16:50:00,49.1,38.2,29.88,SW,236,10.0,15.0,66,0.00,,---,0.00,VWS V14.01,2013-01-19 22:50:00,
2013-01-19 16:56:00,48.8,38.3,29.88,SW,234,12.0,16.0,67,0.00,,---,0.00,VWS V14.01,2013-01-19 22:56:00,
2013-01-19 17:00:00,46.1,36.9,29.90,SW,232,8.0,17.0,70,0.00,,---,0.00,VWS V14.01,2013-01-19 23:00:00,
2013-01-19 17:01:00,48.5,38.1,29.87,WSW,242,7.0,13.0,67,0.00,,---,0.00,VWS V14.01,2013-01-19 23:01:00,
2013-01-19 17:08:00,48.3,37.9,29.88,WSW,247,13.0,17.0,67,0.00,,---,0.00,VWS V14.01,2013-01-19 23:08:00,
2013-01-19 17:13:00,48.1,37.7,29.88,WSW,250,9.0,17.0,67,0.00,,---,0.00,VWS V14.01,2013-01-19 23:13:00,
2013-01-19 17:18:00,47.8,37.8,29.89,WSW,244,11.0,17.0,68,0.00,,---,0.00,VWS V14.01,2013-01-19 23:18:00,
2013-01-19 17:23:00,47.4,37.4,29.89,WSW,243,10.0,17.0,68,0.00,,---,0.00,VWS V14.01,2013-01-19 23:23:00,
2013-01-19 17:29:00,47.1,37.5,29.89,WSW,246,13.0,15.0,69,0.00,,---,0.00,VWS V14.01,2013-01-19 23:29:00,
2013-01-19 17:30:00,44.6,35.8,29.92,WSW,246,9.0,15.0,71,0.00,,---,0.00,VWS V14.01,2013-01-19 23:30:00,
2013-01-19 17:34:00,46.9,37.3,29.89,WSW,246,9.0,15.0,69,0.00,,---,0.00,VWS V14.01,2013-01-19 23:34:00,
2013-01-19 17:39:00,46.7,37.5,29.90,SW,234,11.0,16.0,70,0.00,,---,0.00,VWS V14.01,2013-01-19 23:39:00,
2013-01-19 17:44:00,46.5,37.3,29.90,WSW,242,9.0,17.0,70,0.00,,---,0.00,VWS V14.01,2013-01-19 23:44:00,
2013-01-19 17:49:00,46.4,37.2,29.90,WSW,243,14.0,17.0,70,0.00,,---,0.00,VWS V14.01,2013-01-19 23:49:00,
2013-01-19 17:55:00,46.3,37.1,29.90,WSW,250,11.0,17.0,70,0.00,,---,0.00,VWS V14.01,2013-01-19 23:55:00,
2013-01-19 18:00:00,45.0,35.1,29.94,West,263,19.0,25.0,68,0.00,,---,0.00,VWS V14.01,2013-01-20 00:00:00,
2013-01-19 18:01:00,45.9,36.7,29.90,West,259,8.0,13.0,70,0.00,,---,0.00,VWS V14.01,2013-01-20 00:01:00,
2013-01-19 18:06:00,45.6,36.8,29.90,WSW,238,8.0,14.0,71,0.00,,---,0.00,VWS V14.01,2013-01-20 00:06:00,
2013-01-19 18:11:00,45.4,36.6,29.91,WSW,241,8.0,14.0,71,0.00,,---,0.00,VWS V14.01,2013-01-20 00:11:00,
2013-01-19 18:17:00,45.1,36.3,29.91,WSW,245,9.0,15.0,71,0.00,,---,0.00,VWS V14.01,2013-01-20 00:17:00,
2013-01-19 18:22:00,44.9,36.1,29.91,WSW,257,11.0,15.0,71,0.00,,---,0.00,VWS V14.01,2013-01-20 00:22:00,
2013-01-19 18:27:00,44.7,35.9,29.92,WSW,254,10.0,15.0,71,0.00,,---,0.00,VWS V14.01,2013-01-20 00:27:00,
2013-01-19 18:30:00,45.0,34.0,29.95,West,266,14.0,24.0,65,0.00,,---,0.00,VWS V14.01,2013-01-20 00:30:00,
2013-01-19 18:33:00,44.1,35.7,29.92,WSW,254,9.0,13.0,72,0.00,,---,0.00,VWS V14.01,2013-01-20 00:33:00,
2013-01-19 18:38:00,44.1,35.7,29.92,West,274,13.0,17.0,72,0.00,,---,0.00,VWS V14.01,2013-01-20 00:38:00,
2013-01-19 18:43:00,44.5,35.7,29.92,West,261,11.0,19.0,71,0.00,,---,0.00,VWS V14.01,2013-01-20 00:43:00,
2013-01-19 18:48:00,44.5,35.3,29.93,West,263,15.0,19.0,70,0.00,,---,0.00,VWS V14.01,2013-01-20 00:48:00,
2013-01-19 18:53:00,44.6,35.1,29.93,West,271,19.0,19.0,69,0.00,,---,0.00,VWS V14.01,2013-01-20 00:53:00,
2013-01-19 18:58:00,45.0,35.1,29.94,West,263,19.0,25.0,68,0.00,,---,0.00,VWS V14.01,2013-01-20 00:58:00,
2013-01-19 19:00:00,44.6,34.3,29.96,WSW,256,14.0,22.0,67,0.00,,---,0.00,VWS V14.01,2013-01-20 01:00:00,
2013-01-19 19:03:00,45.6,34.9,29.94,West,259,14.0,24.0,66,0.00,,---,0.00,VWS V14.01,2013-01-20 01:03:00,
2013-01-19 19:09:00,45.5,34.4,29.94,West,259,16.0,24.0,65,0.00,,---,0.00,VWS V14.01,2013-01-20 01:09:00,
2013-01-19 19:14:00,45.2,34.2,29.94,West,278,20.0,24.0,65,0.00,,---,0.00,VWS V14.01,2013-01-20 01:14:00,
2013-01-19 19:19:00,45.0,34.3,29.95,WNW,282,16.0,24.0,66,0.00,,---,0.00,VWS V14.01,2013-01-20 01:19:00,
2013-01-19 19:24:00,45.2,34.2,29.95,West,269,16.0,24.0,65,0.00,,---,0.00,VWS V14.01,2013-01-20 01:24:00,
2013-01-19 19:30:00,44.9,34.2,29.95,West,265,10.0,20.0,66,0.00,,---,0.00,VWS V14.01,2013-01-20 01:30:00,
2013-01-19 19:35:00,44.7,34.0,29.95,West,263,14.0,21.0,66,0.00,,---,0.00,VWS V14.01,2013-01-20 01:35:00,
2013-01-19 19:40:00,44.3,34.0,29.95,West,265,13.0,21.0,67,0.00,,---,0.00,VWS V14.01,2013-01-20 01:40:00,
2013-01-19 19:45:00,44.5,34.2,29.95,West,263,15.0,21.0,67,0.00,,---,0.00,VWS V14.01,2013-01-20 01:45:00,
2013-01-19 19:51:00,44.8,34.5,29.95,West,267,14.0,22.0,67,0.00,,---,0.00,VWS V14.01,2013-01-20 01:51:00,
2013-01-19 19:56:00,44.7,34.4,29.96,West,259,13.0,22.0,67,0.00,,---,0.00,VWS V14.01,2013-01-20 01:56:00,
2013-01-19 20:00:00,44.0,33.8,29.97,West,267,27.0,37.0,67,0.00,,---,0.00,VWS V14.01,2013-01-20 02:00:00,
2013-01-19 20:01:00,44.2,34.3,29.96,WSW,256,12.0,19.0,68,0.00,,---,0.00,VWS V14.01,2013-01-20 02:01:00,
2013-01-19 20:07:00,44.0,34.5,29.96,West,264,19.0,22.0,69,0.00,,---,0.00,VWS V14.01,2013-01-20 02:07:00,
2013-01-19 20:12:00,44.2,34.7,29.96,West,269,21.0,22.0,69,0.00,,---,0.00,VWS V14.01,2013-01-20 02:12:00,
2013-01-19 20:17:00,44.2,34.7,29.96,WSW,249,20.0,25.0,69,0.00,,---,0.00,VWS V14.01,2013-01-20 02:17:00,
2013-01-19 20:22:00,44.1,34.6,29.96,West,259,15.0,25.0,69,0.00,,---,0.00,VWS V14.01,2013-01-20 02:22:00,
2013-01-19 20:28:00,43.7,34.6,29.96,West,262,11.0,25.0,70,0.00,,---,0.00,VWS V14.01,2013-01-20 02:28:00,
2013-01-19 20:30:00,42.2,33.1,29.99,WSW,254,25.0,37.0,70,0.00,,---,0.00,VWS V14.01,2013-01-20 02:30:00,
2013-01-19 20:33:00,43.6,34.5,29.97,West,261,17.0,23.0,70,0.00,,---,0.00,VWS V14.01,2013-01-20 02:33:00,
2013-01-19 20:38:00,43.9,34.8,29.97,West,272,19.0,28.0,70,0.00,,---,0.00,VWS V14.01,2013-01-20 02:38:00,
2013-01-19 20:44:00,44.4,34.9,29.97,WSW,258,17.0,34.0,69,0.00,,---,0.00,VWS V14.01,2013-01-20 02:44:00,
2013-01-19 20:49:00,44.3,34.8,29.97,West,261,22.0,34.0,69,0.00,,---,0.00,VWS V14.01,2013-01-20 02:49:00,
2013-01-19 20:54:00,44.3,34.4,29.98,West,261,37.0,37.0,68,0.00,,---,0.00,VWS V14.01,2013-01-20 02:54:00,
2013-01-19 20:59:00,44.0,33.8,29.97,West,267,23.0,27.0,67,0.00,,---,0.00,VWS V14.01,2013-01-20 02:59:00,
2013-01-19 21:00:00,40.8,31.8,30.01,West,268,17.0,29.0,70,0.00,,---,0.00,VWS V14.01,2013-01-20 03:00:00,
2013-01-19 21:05:00,43.5,33.3,29.98,West,274,27.0,31.0,67,0.00,,---,0.00,VWS V14.01,2013-01-20 03:05:00,
2013-01-19 21:10:00,43.3,33.5,29.98,West,272,25.0,37.0,68,0.00,,---,0.00,VWS V14.01,2013-01-20 03:10:00,
2013-01-19 21:16:00,43.0,33.2,29.99,West,269,18.0,37.0,68,0.00,,---,0.00,VWS V14.01,2013-01-20 03:16:00,
2013-01-19 21:21:00,42.6,33.2,29.99,West,267,20.0,37.0,69,0.00,,---,0.00,VWS V14.01,2013-01-20 03:21:00,
2013-01-19 21:26:00,42.3,33.2,29.99,West,269,23.0,37.0,70,0.00,,---,0.00,VWS V14.01,2013-01-20 03:26:00,
2013-01-19 21:30:00,39.3,31.0,30.02,West,270,14.0,30.0,72,0.00,,---,0.00,VWS V14.01,2013-01-20 03:30:00,
2013-01-19 21:32:00,42.0,32.9,30.00,West,275,25.0,29.0,70,0.00,,---,0.00,VWS V14.01,2013-01-20 03:32:00,
2013-01-19 21:37:00,41.6,32.6,30.00,West,278,20.0,29.0,70,0.00,,---,0.00,VWS V14.01,2013-01-20 03:37:00,
2013-01-19 21:42:00,41.6,32.6,30.00,West,265,24.0,29.0,70,0.00,,---,0.00,VWS V14.01,2013-01-20 03:42:00,
2013-01-19 21:47:00,41.3,32.3,30.00,West,265,17.0,29.0,70,0.00,,---,0.00,VWS V14.01,2013-01-20 03:47:00,
2013-01-19 21:52:00,41.2,32.2,30.01,West,270,19.0,29.0,70,0.00,,---,0.00,VWS V14.01,2013-01-20 03:52:00,
2013-01-19 21:57:00,40.9,31.9,30.01,West,269,17.0,29.0,70,0.00,,---,0.00,VWS V14.01,2013-01-20 03:57:00,
2013-01-19 22:00:00,37.0,28.1,30.06,WNW,289,25.0,36.0,70,0.00,,---,0.00,VWS V14.01,2013-01-20 04:00:00,
2013-01-19 22:02:00,40.4,31.8,30.01,West,279,21.0,28.0,71,0.00,,---,0.00,VWS V14.01,2013-01-20 04:02:00,
2013-01-19 22:07:00,40.3,31.7,30.01,West,268,27.0,30.0,71,0.00,,---,0.00,VWS V14.01,2013-01-20 04:07:00,
2013-01-19 22:13:00,39.9,31.6,30.01,West,268,21.0,30.0,72,0.00,,---,0.00,VWS V14.01,2013-01-20 04:13:00,
2013-01-19 22:18:00,39.7,31.4,30.02,West,274,17.0,30.0,72,0.00,,---,0.00,VWS V14.01,2013-01-20 04:18:00,
2013-01-19 22:23:00,39.6,31.3,30.02,West,279,21.0,30.0,72,0.00,,---,0.00,VWS V14.01,2013-01-20 04:23:00,
2013-01-19 22:28:00,39.3,31.0,30.02,West,272,16.0,30.0,72,0.00,,---,0.00,VWS V14.01,2013-01-20 04:28:00,
2013-01-19 22:30:00,33.0,26.0,30.09,WNW,293,18.0,34.0,75,0.00,,---,0.00,VWS V14.01,2013-01-20 04:30:00,
2013-01-19 22:33:00,39.2,30.6,30.02,West,275,27.0,27.0,71,0.00,,---,0.00,VWS V14.01,2013-01-20 04:33:00,
2013-01-19 22:38:00,39.0,30.1,30.03,WNW,284,25.0,28.0,70,0.00,,---,0.00,VWS V14.01,2013-01-20 04:38:00,
2013-01-19 22:43:00,38.8,29.9,30.04,WNW,283,22.0,28.0,70,0.00,,---,0.00,VWS V14.01,2013-01-20 04:43:00,
2013-01-19 22:48:00,38.8,30.6,30.05,West,277,25.0,33.0,72,0.00,,---,0.00,VWS V14.01,2013-01-20 04:48:00,
2013-01-19 22:53:00,37.8,28.9,30.05,WNW,286,27.0,36.0,70,0.00,,---,0.00,VWS V14.01,2013-01-20 04:53:00,
2013-01-19 22:59:00,36.9,28.0,30.06,WNW,294,23.0,28.0,70,0.00,,---,0.00,VWS V14.01,2013-01-20 04:59:00,
2013-01-19 23:00:00,36.6,27.8,30.06,WNW,288,24.0,28.0,70,0.00,,---,0.00,VWS V14.01,2013-01-20 05:00:00,
2013-01-19 23:01:00,36.5,27.7,30.06,WNW,291,22.0,28.0,70,0.00,,---,0.00,VWS V14.01,2013-01-20 05:01:00,
2013-01-19 23:03:00,36.2,27.4,30.07,WNW,303,21.0,28.0,70,0.00,,---,0.00,VWS V14.01,2013-01-20 05:03:00,
2013-01-19 23:08:00,35.2,26.8,30.07,WNW,285,25.0,34.0,71,0.00,,---,0.00,VWS V14.01,2013-01-20 05:08:00,
2013-01-19 23:13:00,34.5,26.4,30.08,WNW,300,21.0,34.0,72,0.00,,---,0.00,VWS V14.01,2013-01-20 05:13:00,
2013-01-19 23:18:00,34.2,26.5,30.08,WNW,288,23.0,34.0,73,0.00,,---,0.00,VWS V14.01,2013-01-20 05:18:00,
2013-01-19 23:23:00,33.6,26.2,30.08,WNW,294,20.0,34.0,74,0.00,,---,0.00,VWS V14.01,2013-01-20 05:23:00,
2013-01-19 23:28:00,33.0,26.0,30.09,WNW,290,19.0,34.0,75,0.00,,---,0.00,VWS V14.01,2013-01-20 05:28:00,
2013-01-19 23:30:00,28.2,17.6,30.13,WNW,296,15.0,34.0,64,0.00,,---,0.00,VWS V14.01,2013-01-20 05:30:00,
2013-01-19 23:33:00,32.4,24.7,30.10,WNW,291,28.0,35.0,73,0.00,,---,0.00,VWS V14.01,2013-01-20 05:33:00,
2013-01-19 23:38:00,31.7,24.7,30.10,WNW,296,27.0,35.0,75,0.00,,---,0.00,VWS V14.01,2013-01-20 05:38:00,
2013-01-19 23:43:00,31.2,24.2,30.11,WNW,298,31.0,38.0,75,0.00,,---,0.00,VWS V14.01,2013-01-20 05:43:00,
2013-01-19 23:48:00,30.7,23.1,30.11,WNW,287,25.0,38.0,73,0.00,,---,0.00,VWS V14.01,2013-01-20 05:48:00,
2013-01-19 23:53:00,30.3,22.4,30.11,West,277,34.0,39.0,72,0.00,,---,0.00,VWS V14.01,2013-01-20 05:53:00,
2013-01-19 23:58:00,30.2,19.9,30.11,WNW,292,21.0,39.0,65,0.00,,---,0.00,VWS V14.01,2013-01-20 05:58:00,